Time,TemperatureF,DewpointF,PressureIn,WindDirection,WindDirectionDegrees,WindSpeedMPH,WindSpeedGustMPH,Humidity,HourlyPrecipIn,Conditions,Clouds,dailyrainin,SoftwareType,DateUTC
2013-06-16 00:00:00,74.0,0.0,29.86,WNW,292,16.0,25.0,20,-99.99,,,-99.99,,2013-06-16 07:00:00,
2013-06-16 00:08:00,74.0,0.0,29.86,SW,225,20.0,24.0,21,-99.99,,,-99.99,,2013-06-16 07:08:00,
2013-06-16 00:16:00,73.0,0.0,29.86,WNW,294,14.0,23.0,20,-99.99,,,-99.99,,2013-06-16 07:16:00,
2013-06-16 00:24:00,72.0,0.0,29.87,NW,306,12.0,21.0,22,-99.99,,,-99.99,,2013-06-16 07:24:00,
2013-06-16 00:32:00,72.0,0.0,29.87,SW,225,10.0,20.0,23,-99.99,,,-99.99,,2013-06-16 07:32:00,
2013-06-16 00:40:00,72.0,0.0,29.87,WNW,297,16.0,20.0,23,-99.99,,,-99.99,,2013-06-16 07:40:00,
2013-06-16 00:48:00,72.0,0.0,29.87,WNW,300,16.0,20.0,24,-99.99,,,-99.99,,2013-06-16 07:48:00,
2013-06-16 00:56:00,72.0,0.0,29.87,West,272,15.0,20.0,20,-99.99,,,-99.99,,2013-06-16 07:56:00,
2013-06-16 01:04:00,72.0,0.0,29.87,NW,306,14.0,23.0,20,-99.99,,,-99.99,,2013-06-16 08:04:00,
2013-06-16 01:12:00,72.0,0.0,29.87,WNW,296,21.0,21.0,21,-99.99,,,-99.99,,2013-06-16 08:12:00,
2013-06-16 01:20:00,71.0,0.0,29.88,West,277,15.0,21.0,21,-99.99,,,-99.99,,2013-06-16 08:20:00,
2013-06-16 01:28:00,70.0,0.0,29.88,WNW,293,7.0,23.0,21,-99.99,,,-99.99,,2013-06-16 08:28:00,
2013-06-16 01:36:00,69.0,0.0,29.87,WNW,290,14.0,24.0,21,-99.99,,,-99.99,,2013-06-16 08:36:00,
2013-06-16 01:44:00,68.0,0.0,29.87,West,264,16.0,24.0,24,-99.99,,,-99.99,,2013-06-16 08:44:00,
2013-06-16 01:52:00,68.0,0.0,29.87,WNW,295,17.0,22.0,26,-99.99,,,-99.99,,2013-06-16 08:52:00,
2013-06-16 02:00:00,68.0,0.0,29.87,WNW,284,12.0,22.0,23,-99.99,,,-99.99,,2013-06-16 09:00:00,
2013-06-16 02:08:00,68.0,0.0,29.86,SSW,211,13.0,21.0,24,-99.99,,,-99.99,,2013-06-16 09:08:00,
2013-06-16 02:16:00,68.0,0.0,29.87,WNW,287,15.0,23.0,25,-99.99,,,-99.99,,2013-06-16 09:16:00,
2013-06-16 02:24:00,68.0,0.0,29.86,NW,304,14.0,21.0,21,-99.99,,,-99.99,,2013-06-16 09:24:00,
2013-06-16 02:32:00,68.0,0.0,29.87,West,271,15.0,20.0,22,-99.99,,,-99.99,,2013-06-16 09:32:00,
2013-06-16 02:40:00,68.0,0.0,29.87,West,268,10.0,17.0,21,-99.99,,,-99.99,,2013-06-16 09:40:00,
2013-06-16 02:48:00,67.0,0.0,29.87,West,280,16.0,18.0,25,-99.99,,,-99.99,,2013-06-16 09:48:00,
2013-06-16 02:56:00,67.0,0.0,29.87,WNW,301,9.0,18.0,25,-99.99,,,-99.99,,2013-06-16 09:56:00,
2013-06-16 03:04:00,67.0,0.0,29.87,WNW,289,13.0,18.0,21,-99.99,,,-99.99,,2013-06-16 10:04:00,
2013-06-16 03:12:00,67.0,0.0,29.87,WNW,301,9.0,18.0,22,-99.99,,,-99.99,,2013-06-16 10:12:00,
2013-06-16 03:20:00,67.0,0.0,29.87,WNW,286,12.0,16.0,23,-99.99,,,-99.99,,2013-06-16 10:20:00,
2013-06-16 03:28:00,68.0,0.0,29.87,West,267,9.0,15.0,22,-99.99,,,-99.99,,2013-06-16 10:28:00,
2013-06-16 03:36:00,68.0,0.0,29.87,West,270,10.0,16.0,22,-99.99,,,-99.99,,2013-06-16 10:36:00,
2013-06-16 03:44:00,68.0,0.0,29.87,NW,308,9.0,16.0,25,-99.99,,,-99.99,,2013-06-16 10:44:00,
2013-06-16 03:52:00,68.0,0.0,29.88,SW,220,13.0,20.0,22,-99.99,,,-99.99,,2013-06-16 10:52:00,
2013-06-16 04:00:00,68.0,0.0,29.88,WNW,300,16.0,18.0,20,-99.99,,,-99.99,,2013-06-16 11:00:00,
2013-06-16 04:08:00,68.0,0.0,29.88,WNW,288,12.0,18.0,23,-99.99,,,-99.99,,2013-06-16 11:08:00,
2013-06-16 04:16:00,68.0,0.0,29.88,WNW,296,16.0,17.0,23,-99.99,,,-99.99,,2013-06-16 11:16:00,
2013-06-16 04:24:00,69.0,0.0,29.88,WNW,283,12.0,18.0,22,-99.99,,,-99.99,,2013-06-16 11:24:00,
2013-06-16 04:32:00,68.0,0.0,29.88,WNW,301,10.0,17.0,22,-99.99,,,-99.99,,2013-06-16 11:32:00,
2013-06-16 04:40:00,68.0,0.0,29.88,WNW,301,7.0,18.0,21,-99.99,,,-99.99,,2013-06-16 11:40:00,
2013-06-16 04:48:00,68.0,0.0,29.88,NW,307,10.0,18.0,23,-99.99,,,-99.99,,2013-06-16 11:48:00,
2013-06-16 04:56:00,67.0,0.0,29.89,NW,307,12.0,17.0,24,-99.99,,,-99.99,,2013-06-16 11:56:00,
2013-06-16 05:04:00,66.0,0.0,29.89,West,273,10.0,18.0,24,-99.99,,,-99.99,,2013-06-16 12:04:00,
2013-06-16 05:12:00,66.0,0.0,29.89,NW,305,13.0,18.0,25,-99.99,,,-99.99,,2013-06-16 12:12:00,
2013-06-16 05:20:00,66.0,0.0,29.89,WNW,299,10.0,20.0,25,-99.99,,,-99.99,,2013-06-16 12:20:00,
2013-06-16 05:28:00,66.0,0.0,29.89,NW,307,13.0,20.0,27,-99.99,,,-99.99,,2013-06-16 12:28:00,
2013-06-16 05:36:00,66.0,0.0,29.90,SSW,204,13.0,18.0,24,-99.99,,,-99.99,,2013-06-16 12:36:00,
2013-06-16 05:44:00,66.0,0.0,29.90,WNW,295,13.0,18.0,25,-99.99,,,-99.99,,2013-06-16 12:44:00,
2013-06-16 05:52:00,67.0,0.0,29.91,NW,309,9.0,18.0,26,-99.99,,,-99.99,,2013-06-16 12:52:00,
2013-06-16 06:00:00,67.0,0.0,29.91,WNW,296,16.0,18.0,24,-99.99,,,-99.99,,2013-06-16 13:00:00,
2013-06-16 06:08:00,67.0,0.0,29.91,NW,305,12.0,17.0,24,-99.99,,,-99.99,,2013-06-16 13:08:00,
2013-06-16 06:16:00,68.0,0.0,29.91,WNW,299,9.0,18.0,26,-99.99,,,-99.99,,2013-06-16 13:16:00,
2013-06-16 06:24:00,68.0,0.0,29.91,West,268,13.0,17.0,26,-99.99,,,-99.99,,2013-06-16 13:24:00,
2013-06-16 06:32:00,69.0,0.0,29.91,WNW,288,14.0,17.0,22,-99.99,,,-99.99,,2013-06-16 13:32:00,
2013-06-16 06:40:00,70.0,0.0,29.92,NW,305,10.0,16.0,23,-99.99,,,-99.99,,2013-06-16 13:40:00,
2013-06-16 06:48:00,71.0,0.0,29.92,West,279,13.0,15.0,20,-99.99,,,-99.99,,2013-06-16 13:48:00,
2013-06-16 06:56:00,72.0,0.0,29.92,WNW,289,14.0,16.0,24,-99.99,,,-99.99,,2013-06-16 13:56:00,
2013-06-16 07:04:00,72.0,0.0,29.93,WSW,250,8.0,16.0,20,-99.99,,,-99.99,,2013-06-16 14:04:00,
2013-06-16 07:12:00,73.0,0.0,29.93,NW,304,16.0,16.0,19,-99.99,,,-99.99,,2013-06-16 14:12:00,
2013-06-16 07:20:00,74.0,0.0,29.93,WNW,293,6.0,17.0,23,-99.99,,,-99.99,,2013-06-16 14:20:00,
2013-06-16 07:28:00,75.0,0.0,29.94,WNW,297,6.0,18.0,19,-99.99,,,-99.99,,2013-06-16 14:28:00,
2013-06-16 07:36:00,75.0,0.0,29.94,WNW,297,14.0,20.0,20,-99.99,,,-99.99,,2013-06-16 14:36:00,
2013-06-16 07:44:00,76.0,0.0,29.94,WSW,249,20.0,20.0,18,-99.99,,,-99.99,,2013-06-16 14:44:00,
2013-06-16 07:52:00,76.0,0.0,29.95,WNW,300,13.0,21.0,20,-99.99,,,-99.99,,2013-06-16 14:52:00,
2013-06-16 08:00:00,77.0,0.0,29.95,WNW,299,14.0,20.0,19,-99.99,,,-99.99,,2013-06-16 15:00:00,
2013-06-16 08:08:00,77.0,0.0,29.95,WNW,298,13.0,21.0,20,-99.99,,,-99.99,,2013-06-16 15:08:00,
2013-06-16 08:16:00,78.0,0.0,29.95,West,281,18.0,21.0,19,-99.99,,,-99.99,,2013-06-16 15:16:00,
2013-06-16 08:24:00,78.0,0.0,29.95,West,279,15.0,21.0,17,-99.99,,,-99.99,,2013-06-16 15:24:00,
2013-06-16 08:32:00,79.0,0.0,29.95,NW,306,13.0,20.0,19,-99.99,,,-99.99,,2013-06-16 15:32:00,
2013-06-16 08:40:00,80.0,0.0,29.96,WNW,291,13.0,18.0,16,-99.99,,,-99.99,,2013-06-16 15:40:00,
2013-06-16 08:48:00,80.0,0.0,29.96,WNW,294,16.0,18.0,18,-99.99,,,-99.99,,2013-06-16 15:48:00,
2013-06-16 08:56:00,80.0,0.0,29.96,NW,304,3.0,18.0,18,-99.99,,,-99.99,,2013-06-16 15:56:00,
2013-06-16 09:04:00,81.0,0.0,29.96,WNW,292,12.0,21.0,18,-99.99,,,-99.99,,2013-06-16 16:04:00,
2013-06-16 09:12:00,82.0,0.0,29.96,WNW,299,13.0,18.0,17,-99.99,,,-99.99,,2013-06-16 16:12:00,
2013-06-16 09:20:00,82.0,0.0,29.96,NW,307,10.0,16.0,17,-99.99,,,-99.99,,2013-06-16 16:20:00,
2013-06-16 09:28:00,83.0,0.0,29.96,WNW,301,8.0,15.0,15,-99.99,,,-99.99,,2013-06-16 16:28:00,
2013-06-16 09:36:00,83.0,0.0,29.96,NW,305,12.0,16.0,14,-99.99,,,-99.99,,2013-06-16 16:36:00,
2013-06-16 09:44:00,84.0,0.0,29.96,West,268,10.0,15.0,17,-99.99,,,-99.99,,2013-06-16 16:44:00,
2013-06-16 09:52:00,86.0,0.0,29.96,WNW,302,14.0,14.0,13,-99.99,,,-99.99,,2013-06-16 16:52:00,
2013-06-16 10:00:00,86.0,0.0,29.96,NW,304,8.0,15.0,14,-99.99,,,-99.99,,2013-06-16 17:00:00,
2013-06-16 10:08:00,86.0,0.0,29.96,WNW,297,5.0,15.0,13,-99.99,,,-99.99,,2013-06-16 17:08:00,
2013-06-16 10:16:00,88.0,0.0,29.96,NW,311,3.0,13.0,14,-99.99,,,-99.99,,2013-06-16 17:16:00,
2013-06-16 10:24:00,88.0,0.0,29.96,NW,305,8.0,13.0,14,-99.99,,,-99.99,,2013-06-16 17:24:00,
2013-06-16 10:32:00,89.0,0.0,29.96,WNW,303,5.0,10.0,14,-99.99,,,-99.99,,2013-06-16 17:32:00,
2013-06-16 10:40:00,90.0,0.0,29.96,NW,314,5.0,13.0,13,-99.99,,,-99.99,,2013-06-16 17:40:00,
2013-06-16 10:48:00,90.0,0.0,29.96,WNW,302,3.0,13.0,13,-99.99,,,-99.99,,2013-06-16 17:48:00,
2013-06-16 10:56:00,88.0,0.0,29.96,WNW,289,5.0,8.0,14,-99.99,,,-99.99,,2013-06-16 17:56:00,
2013-06-16 11:04:00,89.0,0.0,29.96,WNW,296,6.0,14.0,12,-99.99,,,-99.99,,2013-06-16 18:04:00,
2013-06-16 11:12:00,89.0,0.0,29.96,WNW,295,3.0,10.0,12,-99.99,,,-99.99,,2013-06-16 18:12:00,
2013-06-16 11:20:00,88.0,0.0,29.96,WNW,300,0.0,7.0,13,-99.99,,,-99.99,,2013-06-16 18:20:00,
2013-06-16 11:28:00,90.0,0.0,29.96,NW,308,7.0,12.0,13,-99.99,,,-99.99,,2013-06-16 18:28:00,
2013-06-16 11:36:00,90.0,0.0,29.96,NW,308,0.0,9.0,13,-99.99,,,-99.99,,2013-06-16 18:36:00,
2013-06-16 11:44:00,92.0,0.0,29.95,NW,320,3.0,6.0,12,-99.99,,,-99.99,,2013-06-16 18:44:00,
2013-06-16 11:52:00,93.0,0.0,29.95,NW,305,6.0,10.0,15,-99.99,,,-99.99,,2013-06-16 18:52:00,
2013-06-16 12:00:00,90.0,0.0,29.95,WSW,248,1.0,9.0,13,-99.99,,,-99.99,,2013-06-16 19:00:00,
2013-06-16 12:08:00,90.0,0.0,29.95,West,271,1.0,5.0,11,-99.99,,,-99.99,,2013-06-16 19:08:00,
2013-06-16 12:16:00,91.0,0.0,29.95,NE,37,1.0,3.0,12,-99.99,,,-99.99,,2013-06-16 19:16:00,
2013-06-16 12:24:00,91.0,0.0,29.95,SE,141,1.0,7.0,15,-99.99,,,-99.99,,2013-06-16 19:24:00,
2013-06-16 12:32:00,94.0,0.0,29.94,NW,313,2.0,9.0,8,-99.99,,,-99.99,,2013-06-16 19:32:00,
2013-06-16 12:40:00,94.0,0.0,29.94,NW,319,2.0,8.0,8,-99.99,,,-99.99,,2013-06-16 19:40:00,
2013-06-16 12:48:00,92.0,0.0,29.94,SE,132,0.0,5.0,9,-99.99,,,-99.99,,2013-06-16 19:48:00,
2013-06-16 12:56:00,92.0,0.0,29.93,WNW,298,9.0,9.0,11,-99.99,,,-99.99,,2013-06-16 19:56:00,
2013-06-16 13:04:00,94.0,0.0,29.93,NW,309,2.0,12.0,13,-99.99,,,-99.99,,2013-06-16 20:04:00,
2013-06-16 13:12:00,95.0,0.0,29.93,NW,308,5.0,13.0,13,-99.99,,,-99.99,,2013-06-16 20:12:00,
2013-06-16 13:20:00,94.0,0.0,29.93,NW,310,0.0,9.0,11,-99.99,,,-99.99,,2013-06-16 20:20:00,
2013-06-16 13:28:00,94.0,0.0,29.93,WNW,299,2.0,12.0,9,-99.99,,,-99.99,,2013-06-16 20:28:00,
2013-06-16 13:36:00,93.0,0.0,29.92,SW,219,3.0,12.0,12,-99.99,,,-99.99,,2013-06-16 20:36:00,
2013-06-16 13:44:00,93.0,0.0,29.92,SW,218,6.0,9.0,11,-99.99,,,-99.99,,2013-06-16 20:44:00,
2013-06-16 13:52:00,93.0,0.0,29.91,WSW,242,2.0,7.0,11,-99.99,,,-99.99,,2013-06-16 20:52:00,
2013-06-16 14:00:00,96.0,0.0,29.91,NW,316,6.0,7.0,9,-99.99,,,-99.99,,2013-06-16 21:00:00,
2013-06-16 14:08:00,95.0,0.0,29.91,WNW,300,8.0,10.0,11,-99.99,,,-99.99,,2013-06-16 21:08:00,
2013-06-16 14:16:00,94.0,0.0,29.90,WSW,240,2.0,8.0,11,-99.99,,,-99.99,,2013-06-16 21:16:00,
2013-06-16 14:24:00,95.0,0.0,29.90,WNW,287,7.0,9.0,10,-99.99,,,-99.99,,2013-06-16 21:24:00,
2013-06-16 14:32:00,96.0,0.0,29.90,West,279,3.0,9.0,10,-99.99,,,-99.99,,2013-06-16 21:32:00,
2013-06-16 14:40:00,96.0,0.0,29.89,NW,307,9.0,16.0,11,-99.99,,,-99.99,,2013-06-16 21:40:00,
2013-06-16 14:48:00,96.0,0.0,29.89,WSW,248,5.0,13.0,10,-99.99,,,-99.99,,2013-06-16 21:48:00,
2013-06-16 14:56:00,97.0,0.0,29.89,WNW,295,16.0,17.0,9,-99.99,,,-99.99,,2013-06-16 21:56:00,
2013-06-16 15:04:00,98.0,0.0,29.88,WNW,300,16.0,20.0,11,-99.99,,,-99.99,,2013-06-16 22:04:00,
2013-06-16 15:12:00,96.0,0.0,29.89,NW,305,5.0,21.0,7,-99.99,,,-99.99,,2013-06-16 22:12:00,
2013-06-16 15:20:00,98.0,0.0,29.88,NW,307,6.0,13.0,12,-99.99,,,-99.99,,2013-06-16 22:20:00,
2013-06-16 15:28:00,96.0,0.0,29.88,WNW,297,2.0,16.0,9,-99.99,,,-99.99,,2013-06-16 22:28:00,
2013-06-16 15:36:00,97.0,0.0,29.88,NW,319,9.0,12.0,9,-99.99,,,-99.99,,2013-06-16 22:36:00,
2013-06-16 15:44:00,97.0,0.0,29.88,WNW,295,6.0,20.0,6,-99.99,,,-99.99,,2013-06-16 22:44:00,
2013-06-16 15:52:00,97.0,0.0,29.88,WNW,301,12.0,21.0,7,-99.99,,,-99.99,,2013-06-16 22:52:00,
2013-06-16 16:00:00,96.0,0.0,29.87,WNW,299,8.0,21.0,6,-99.99,,,-99.99,,2013-06-16 23:00:00,
2013-06-16 16:08:00,96.0,0.0,29.87,WNW,294,5.0,20.0,10,-99.99,,,-99.99,,2013-06-16 23:08:00,
2013-06-16 16:16:00,98.0,0.0,29.87,WNW,300,12.0,18.0,5,-99.99,,,-99.99,,2013-06-16 23:16:00,
2013-06-16 16:24:00,96.0,0.0,29.87,WNW,300,10.0,20.0,9,-99.99,,,-99.99,,2013-06-16 23:24:00,
2013-06-16 16:32:00,96.0,0.0,29.87,WNW,298,20.0,20.0,8,-99.99,,,-99.99,,2013-06-16 23:32:00,
2013-06-16 16:40:00,96.0,0.0,29.87,WNW,299,15.0,21.0,5,-99.99,,,-99.99,,2013-06-16 23:40:00,
2013-06-16 16:48:00,96.0,0.0,29.87,WNW,299,10.0,21.0,5,-99.99,,,-99.99,,2013-06-16 23:48:00,
2013-06-16 16:56:00,95.0,0.0,29.86,NW,304,13.0,17.0,7,-99.99,,,-99.99,,2013-06-16 23:56:00,
2013-06-16 17:04:00,96.0,0.0,29.86,NW,304,8.0,20.0,7,-99.99,,,-99.99,,2013-06-17 00:04:00,
2013-06-16 17:12:00,96.0,0.0,29.86,NW,309,1.0,20.0,8,-99.99,,,-99.99,,2013-06-17 00:12:00,
2013-06-16 17:20:00,96.0,0.0,29.86,WNW,302,9.0,22.0,5,-99.99,,,-99.99,,2013-06-17 00:20:00,
2013-06-16 17:28:00,96.0,0.0,29.85,WNW,296,10.0,24.0,8,-99.99,,,-99.99,,2013-06-17 00:28:00,
2013-06-16 17:36:00,95.0,0.0,29.85,NW,306,13.0,21.0,7,-99.99,,,-99.99,,2013-06-17 00:36:00,
2013-06-16 17:44:00,96.0,0.0,29.85,WNW,299,18.0,20.0,9,-99.99,,,-99.99,,2013-06-17 00:44:00,
2013-06-16 17:52:00,95.0,0.0,29.85,WNW,300,10.0,25.0,10,-99.99,,,-99.99,,2013-06-17 00:52:00,
2013-06-16 18:00:00,95.0,0.0,29.85,WNW,303,14.0,21.0,9,-99.99,,,-99.99,,2013-06-17 01:00:00,
2013-06-16 18:08:00,95.0,0.0,29.85,WNW,303,20.0,22.0,9,-99.99,,,-99.99,,2013-06-17 01:08:00,
2013-06-16 18:16:00,94.0,0.0,29.85,NW,311,9.0,22.0,9,-99.99,,,-99.99,,2013-06-17 01:16:00,
2013-06-16 18:24:00,94.0,0.0,29.86,NW,304,16.0,22.0,11,-99.99,,,-99.99,,2013-06-17 01:24:00,
2013-06-16 18:32:00,94.0,0.0,29.86,NW,312,15.0,23.0,11,-99.99,,,-99.99,,2013-06-17 01:32:00,
2013-06-16 18:40:00,93.0,0.0,29.86,NW,311,17.0,23.0,11,-99.99,,,-99.99,,2013-06-17 01:40:00,
2013-06-16 18:48:00,93.0,0.0,29.86,West,281,21.0,23.0,11,-99.99,,,-99.99,,2013-06-17 01:48:00,
2013-06-16 18:56:00,92.0,0.0,29.87,NW,306,12.0,23.0,10,-99.99,,,-99.99,,2013-06-17 01:56:00,
2013-06-16 19:04:00,92.0,0.0,29.87,WNW,301,16.0,22.0,14,-99.99,,,-99.99,,2013-06-17 02:04:00,
2013-06-16 19:12:00,91.0,0.0,29.87,WNW,297,9.0,22.0,13,-99.99,,,-99.99,,2013-06-17 02:12:00,
2013-06-16 19:20:00,91.0,0.0,29.88,WNW,288,14.0,21.0,12,-99.99,,,-99.99,,2013-06-17 02:20:00,
2013-06-16 19:28:00,90.0,0.0,29.88,WNW,297,15.0,22.0,10,-99.99,,,-99.99,,2013-06-17 02:28:00,
2013-06-16 19:36:00,89.0,0.0,29.88,WNW,293,17.0,21.0,10,-99.99,,,-99.99,,2013-06-17 02:36:00,
2013-06-16 19:44:00,88.0,0.0,29.88,WNW,295,10.0,22.0,15,-99.99,,,-99.99,,2013-06-17 02:44:00,
2013-06-16 19:52:00,88.0,0.0,29.88,NW,306,21.0,22.0,13,-99.99,,,-99.99,,2013-06-17 02:52:00,
2013-06-16 20:00:00,87.0,0.0,29.89,WNW,292,14.0,22.0,12,-99.99,,,-99.99,,2013-06-17 03:00:00,
2013-06-16 20:08:00,86.0,0.0,29.89,WNW,294,16.0,22.0,14,-99.99,,,-99.99,,2013-06-17 03:08:00,
2013-06-16 20:16:00,85.0,0.0,29.89,NW,304,12.0,17.0,14,-99.99,,,-99.99,,2013-06-17 03:16:00,
2013-06-16 20:24:00,85.0,0.0,29.89,WNW,298,14.0,16.0,15,-99.99,,,-99.99,,2013-06-17 03:24:00,
2013-06-16 20:32:00,84.0,0.0,29.89,WNW,302,13.0,20.0,14,-99.99,,,-99.99,,2013-06-17 03:32:00,
2013-06-16 20:40:00,84.0,0.0,29.89,West,281,14.0,20.0,13,-99.99,,,-99.99,,2013-06-17 03:40:00,
2013-06-16 20:48:00,83.0,0.0,29.89,WNW,295,14.0,17.0,13,-99.99,,,-99.99,,2013-06-17 03:48:00,
2013-06-16 20:56:00,82.0,0.0,29.90,WNW,287,13.0,15.0,13,-99.99,,,-99.99,,2013-06-17 03:56:00,
2013-06-16 21:04:00,81.0,0.0,29.90,WNW,296,13.0,18.0,15,-99.99,,,-99.99,,2013-06-17 04:04:00,
2013-06-16 21:08:00,81.0,0.0,29.90,NW,306,10.0,18.0,15,-99.99,,,-99.99,,2013-06-17 04:08:00,
2013-06-16 21:12:00,81.0,0.0,29.90,WNW,302,10.0,17.0,18,-99.99,,,-99.99,,2013-06-17 04:12:00,
2013-06-16 21:16:00,80.0,0.0,29.91,West,274,14.0,16.0,14,-99.99,,,-99.99,,2013-06-17 04:16:00,
2013-06-16 21:24:00,80.0,0.0,29.91,West,278,9.0,15.0,17,-99.99,,,-99.99,,2013-06-17 04:24:00,
2013-06-16 21:32:00,79.0,0.0,29.92,WNW,302,10.0,14.0,17,-99.99,,,-99.99,,2013-06-17 04:32:00,
2013-06-16 21:40:00,78.0,0.0,29.92,WNW,283,8.0,14.0,17,-99.99,,,-99.99,,2013-06-17 04:40:00,
2013-06-16 21:48:00,0.0,0.0,-0.01,North,0,0.0,0.0,0,-99.99,,,-99.99,,2013-06-17 04:48:00,
2013-06-16 21:56:00,78.0,0.0,29.93,WNW,297,9.0,13.0,15,-99.99,,,-99.99,,2013-06-17 04:56:00,
2013-06-16 22:04:00,77.0,0.0,29.92,WNW,296,10.0,14.0,16,-99.99,,,-99.99,,2013-06-17 05:04:00,
2013-06-16 22:12:00,77.0,0.0,29.92,WNW,294,10.0,16.0,18,-99.99,,,-99.99,,2013-06-17 05:12:00,
2013-06-16 22:20:00,77.0,0.0,29.93,WNW,297,9.0,14.0,18,-99.99,,,-99.99,,2013-06-17 05:20:00,
2013-06-16 22:28:00,77.0,0.0,29.93,WNW,299,7.0,14.0,15,-99.99,,,-99.99,,2013-06-17 05:28:00,
2013-06-16 22:36:00,76.0,0.0,29.93,WNW,298,12.0,14.0,18,-99.99,,,-99.99,,2013-06-17 05:36:00,
2013-06-16 22:44:00,76.0,0.0,29.92,WNW,294,12.0,15.0,17,-99.99,,,-99.99,,2013-06-17 05:44:00,
2013-06-16 22:52:00,76.0,0.0,29.92,West,278,10.0,15.0,16,-99.99,,,-99.99,,2013-06-17 05:52:00,
2013-06-16 23:00:00,76.0,0.0,29.92,WNW,300,10.0,15.0,16,-99.99,,,-99.99,,2013-06-17 06:00:00,
2013-06-16 23:08:00,75.0,0.0,29.92,WNW,300,10.0,16.0,16,-99.99,,,-99.99,,2013-06-17 06:08:00,
2013-06-16 23:16:00,75.0,0.0,29.92,WNW,290,9.0,16.0,18,-99.99,,,-99.99,,2013-06-17 06:16:00,
2013-06-16 23:24:00,75.0,0.0,29.92,WNW,301,10.0,16.0,19,-99.99,,,-99.99,,2013-06-17 06:24:00,
2013-06-16 23:32:00,75.0,0.0,29.92,WNW,296,10.0,16.0,19,-99.99,,,-99.99,,2013-06-17 06:32:00,
2013-06-16 23:40:00,75.0,0.0,29.92,WNW,299,10.0,16.0,20,-99.99,,,-99.99,,2013-06-17 06:40:00,
2013-06-16 23:48:00,74.0,0.0,29.92,WNW,303,15.0,21.0,18,-99.99,,,-99.99,,2013-06-17 06:48:00,
2013-06-16 23:56:00,74.0,0.0,29.92,NW,307,8.0,18.0,21,-99.99,,,-99.99,,2013-06-17 06:56:00,